Location: Dompnac
(44.5644°N, 4.1026°E)
Time: 11:38:49
(UTC+00:00)

CZ-2C R/B - Pass Details

Date: 19 September 2020
Orbit: 785 x 870 km, 98.2° (Epoch: 29 October)

Event Time Altitude Azimuth Distance (km) Brightness Sun altitude
Rises 18:58:54 0° 18° (NNE) 3,419 5.8 -13.6°
Reaches altitude 10° 19:01:21 10° 25° (NNE) 2,491 5.1 -14.1°
Maximum altitude 19:06:42 47° 99° (E) 1,126 2.9 -15.0°
Drops below altitude 10° 19:12:04 10° 172° (S) 2,506 4.9 -15.9°
Sets 19:14:33 0° 178° (S) 3,441 5.7 -16.3°
